Regional Weather Roundup
Issued by NWS

Home | Current Version | Previous Version | Graphics & Text | Print | Product List | Glossary On
Versions: 1 2 3 4 5 6 7 8 9 10 11 12 13 14 15 16 17 18 19 20 21 22 23 24 25 26 27 28 29 30 31 32 33 34 35 36 37 38 39 40 41 42 43 44 45 46 47 48 49 50
424
ASUS44 KJAN 250503
RWRMS

MISSISSIPPI HOURLY WEATHER ROUNDUP
NATIONAL WEATHER SERVICE JACKSON MS
1200 AM CDT FRI JUL 25 2014

NOTE: "FAIR: INDICATES FEW OR NO CLOUDS BELOW 12,000 FEET WITH NO
SIGNIFICANT WEATHER AND/OR OBSTRUCTIONS TO VISIBILITY.

MSZ001>002-007>008-010>013-018>021-025>028-034>036-250600-
NORTHWEST MISSISSIPPI

CITY           SKY/WX    TMP DP  RH WIND       PRES   REMARKS
CLARKSDALE     FAIR      64  63  94 CALM      30.04S
CLEVELAND      FAIR      68  64  86 CALM      30.03S
GREENWOOD      CLEAR     67  64  90 CALM      30.03R
GREENVILLE     CLEAR     70  67  90 CALM      30.03R
GRENADA        FAIR      63  63 100 CALM      30.04R
OLIVE BRANCH   CLEAR     66  66 100 N5        30.04F
OXFORD         FAIR      63  59  88 CALM      30.05S
TUNICA         CLEAR     64  61  88 N5        30.05S
$$

MSZ003>006-009-014>017-022>024-029>033-037>039-250600-
NORTHEAST MISSISSIPPI

CITY           SKY/WX    TMP DP  RH WIND       PRES   REMARKS
BELMONT        FAIR      64  62  93 CALM      30.03S
COLUMBUS AFB   CLEAR     65  63  93 CALM      30.03S
CORINTH        FAIR      64  63  94 CALM      30.03S
GOLDN TRIANGLE CLEAR     70  63  78 CALM      30.03S
STARKVILLE     FAIR      68  64  88 CALM      30.03S
TUPELO         CLEAR     67  62  84 CALM      30.02S
$$

MSZ040-058-250600-
CENTRAL MISSISSIPPI

CITY           SKY/WX    TMP DP  RH WIND       PRES   REMARKS
JACKSON INTL   CLEAR     77  73  87 N6        30.01S
JACKSON HAWKNS CLEAR     77  69  76 N7        30.02S
MERIDIAN KEY   CLOUDY    75  74  96 CALM      30.01R
MERIDIAN NAS   MOCLDY    75  73  93 N5        30.02R
RAYMOND        FAIR      75  68  78 CALM      30.02S
VICKSBURG      CLEAR     76  72  87 N8        30.03R
$$

MSZ059>079-250600-
SOUTH MISSISSIPPI

CITY           SKY/WX    TMP DP  RH WIND       PRES   REMARKS
BROOKHAVEN     FAIR      75  75 100 CALM      30.03S FOG
COLUMBIA       FAIR      77  75  94 CALM      29.99F
HATTIESBURG    HAZE      79  73  82 W3        30.00F VSB 3/4
MCCOMB         PTCLDY    76  72  87 N3        30.00F
NATCHEZ        CLEAR     77  73  88 NE3       30.02F
PINE BELT      CLOUDY    75  72  88 SW3       30.02R
$$

MSZ080>082-250600-
COASTAL MISSISSIPPI

CITY           SKY/WX    TMP DP  RH WIND       PRES   REMARKS
BILOXI         CLEAR     80  74  83 S5        29.98F
PASCAGOULA     CLEAR     75  73  93 CALM      29.99F
GULFPORT       CLEAR     81  75  82 CALM      29.98S
$$



USA.gov is the U.S. government's official web portal to all federal, state and local government web resources and services.